When you browse on this site, cookies collect data to enhance your experience and personalize the content and advertising you see.
Visit our Privacy Policy to learn more. By continuing to use the site, you agree to this use of cookies and data.
  • In Schweiz
  • Länderverzeichnis
  • Für 7 Tage
  • Wassertemperatur
  • Wetterkarte
  • Widgets
  • user-avatar
    Anmelden

    Stündliche Wetter Portsmut

    Heute, 8 Dezember, Sonntag

    Zeit Temperatur Niederschläge Wind Luftdruck Luftfeuchtigkeit
    00:00 +3°C° 0 mm 3 m/S 773 mmHg 60%
    01:00 +3°C° 0 mm 3 m/S 773 mmHg 61%
    02:00 +3°C° 0 mm 3 m/S 773 mmHg 62%
    03:00 +3°C° 0 mm 3 m/S 773 mmHg 63%
    04:00 +3°C° 0 mm 3 m/S 773 mmHg 64%
    05:00 +3°C° 0 mm 3 m/S 773 mmHg 66%
    06:00 +4°C° 0 mm 2 m/S 773 mmHg 67%
    07:00 +4°C° 0 mm 2 m/S 773 mmHg 69%
    08:00 +5°C° 0 mm 3 m/S 773 mmHg 65%
    09:00 +8°C° 0 mm 3 m/S 773 mmHg 60%
    10:00 +9°C° 0 mm 3 m/S 774 mmHg 56%
    11:00 +10°C° 0 mm 3 m/S 773 mmHg 55%
    12:00 +11°C° 0 mm 3 m/S 772 mmHg 55%
    13:00 +12°C° 0 mm 3 m/S 772 mmHg 54%
    14:00 +12°C° 0 mm 3 m/S 771 mmHg 58%
    15:00 +13°C° 0 mm 2 m/S 771 mmHg 62%
    16:00 +12°C° 0 mm 2 m/S 770 mmHg 66%
    17:00 +12°C° 0 mm 2 m/S 770 mmHg 70%
    18:00 +10°C° 0 mm 2 m/S 770 mmHg 75%
    19:00 +10°C° 0 mm 2 m/S 770 mmHg 79%
    20:00 +10°C° 0 mm 2 m/S 770 mmHg 80%
    21:00 +12°C° 0 mm 2 m/S 769 mmHg 81%
    22:00 +12°C° 0 mm 2 m/S 769 mmHg 82%
    23:00 +12°C° 0.1 mm 2 m/S 769 mmHg 84%

    Morgen, 9 Dezember, Montag

    Zeit Temperatur Niederschläge Wind Luftdruck Luftfeuchtigkeit
    00:00 +12°C° 0.1 mm 2 m/S 768 mmHg 86%
    01:00 +13°C° 0.1 mm 2 m/S 768 mmHg 88%
    02:00 +12°C° 1.2 mm 3 m/S 768 mmHg 90%
    03:00 +12°C° 1.2 mm 4 m/S 767 mmHg 92%
    04:00 +13°C° 1.2 mm 4 m/S 766 mmHg 94%
    05:00 +13°C° 1.8 mm 5 m/S 766 mmHg 94%
    06:00 +14°C° 1.8 mm 5 m/S 766 mmHg 94%
    07:00 +14°C° 1.8 mm 6 m/S 765 mmHg 94%
    08:00 +15°C° 1.1 mm 6 m/S 765 mmHg 92%
    09:00 +16°C° 1.1 mm 6 m/S 764 mmHg 90%
    10:00 +17°C° 1.1 mm 6 m/S 764 mmHg 88%
    11:00 +19°C° 0.1 mm 6 m/S 763 mmHg 84%
    12:00 +20°C° 0.1 mm 6 m/S 762 mmHg 79%
    13:00 +21°C° 0.1 mm 6 m/S 761 mmHg 75%
    14:00 +20°C° 0 mm 5 m/S 761 mmHg 77%
    15:00 +20°C° 0 mm 5 m/S 760 mmHg 79%
    16:00 +19°C° 0 mm 5 m/S 760 mmHg 81%
    17:00 +19°C° 0 mm 5 m/S 760 mmHg 82%
    18:00 +19°C° 0 mm 6 m/S 760 mmHg 84%
    19:00 +17°C° 0 mm 6 m/S 760 mmHg 85%
    20:00 +17°C° 0 mm 6 m/S 760 mmHg 84%
    21:00 +17°C° 0 mm 6 m/S 760 mmHg 83%
    22:00 +17°C° 0 mm 6 m/S 760 mmHg 82%
    23:00 +17°C° 0 mm 7 m/S 760 mmHg 81%

    übermorgen, 10 Dezember, Dienstag

    Zeit Temperatur Niederschläge Wind Luftdruck Luftfeuchtigkeit
    00:00 +17°C° 0 mm 7 m/S 760 mmHg 79%
    01:00 +17°C° 0 mm 7 m/S 760 mmHg 78%
    02:00 +17°C° 0 mm 6 m/S 760 mmHg 80%
    03:00 +17°C° 0 mm 6 m/S 760 mmHg 82%
    04:00 +17°C° 0 mm 6 m/S 759 mmHg 84%
    05:00 +17°C° 0 mm 6 m/S 760 mmHg 84%
    06:00 +17°C° 0 mm 6 m/S 760 mmHg 85%
    07:00 +17°C° 0 mm 6 m/S 761 mmHg 86%
    08:00 +19°C° 0 mm 6 m/S 761 mmHg 84%
    09:00 +19°C° 0 mm 6 m/S 761 mmHg 82%
    10:00 +20°C° 0 mm 6 m/S 762 mmHg 80%
    11:00 +20°C° 0 mm 6 m/S 761 mmHg 77%
    12:00 +21°C° 0 mm 6 m/S 761 mmHg 75%
    13:00 +21°C° 0 mm 6 m/S 761 mmHg 72%
    14:00 +21°C° 0 mm 5 m/S 761 mmHg 74%
    15:00 +21°C° 0 mm 4 m/S 761 mmHg 75%
    16:00 +21°C° 0 mm 3 m/S 760 mmHg 77%
    17:00 +20°C° 0 mm 4 m/S 761 mmHg 78%
    18:00 +20°C° 0 mm 4 m/S 761 mmHg 80%
    19:00 +19°C° 0 mm 4 m/S 761 mmHg 81%
    20:00 +19°C° 0.1 mm 4 m/S 761 mmHg 84%
    21:00 +18°C° 0.1 mm 4 m/S 762 mmHg 86%
    22:00 +18°C° 0.1 mm 3 m/S 762 mmHg 89%
    23:00 +14°C° 0.7 mm 5 m/S 763 mmHg 88%

    11 Dezember, Mittwoch

    Zeit Temperatur Niederschläge Wind Luftdruck Luftfeuchtigkeit
    00:00 +11°C° 0.7 mm 6 m/S 763 mmHg 87%
    01:00 +9°C° 0.7 mm 8 m/S 763 mmHg 86%
    02:00 +7°C° 0.5 mm 8 m/S 764 mmHg 84%
    03:00 +6°C° 0.5 mm 8 m/S 765 mmHg 83%
    04:00 +6°C° 0.5 mm 8 m/S 765 mmHg 82%
    05:00 +5°C° 0.3 mm 7 m/S 766 mmHg 82%
    06:00 +5°C° 0.3 mm 6 m/S 767 mmHg 82%
    07:00 +5°C° 0.3 mm 6 m/S 768 mmHg 83%
    08:00 +5°C° 0.2 mm 5 m/S 768 mmHg 82%
    09:00 +5°C° 0.2 mm 5 m/S 769 mmHg 81%
    10:00 +5°C° 0.2 mm 5 m/S 770 mmHg 81%
    11:00 +5°C° 0 mm 4 m/S 770 mmHg 78%
    12:00 +5°C° 0 mm 4 m/S 770 mmHg 76%
    13:00 +5°C° 0 mm 4 m/S 770 mmHg 73%
    14:00 +5°C° 0 mm 4 m/S 770 mmHg 72%
    15:00 +5°C° 0 mm 4 m/S 770 mmHg 72%
    16:00 +5°C° 0 mm 4 m/S 771 mmHg 71%
    17:00 +5°C° 0 mm 4 m/S 771 mmHg 71%
    18:00 +5°C° 0 mm 4 m/S 772 mmHg 71%
    19:00 +5°C° 0 mm 4 m/S 772 mmHg 71%
    20:00 +5°C° 0 mm 4 m/S 773 mmHg 69%
    21:00 +5°C° 0 mm 5 m/S 773 mmHg 67%
    22:00 +5°C° 0 mm 5 m/S 773 mmHg 65%
    23:00 +4°C° 0 mm 6 m/S 774 mmHg 62%

    12 Dezember, Donnerstag

    Zeit Temperatur Niederschläge Wind Luftdruck Luftfeuchtigkeit
    00:00 +4°C° 0 mm 7 m/S 774 mmHg 58%
    01:00 +3°C° 0 mm 7 m/S 774 mmHg 54%
    02:00 +2°C° 0 mm 8 m/S 774 mmHg 52%
    03:00 +2°C° 0 mm 8 m/S 774 mmHg 51%
    04:00 +1°C° 0 mm 8 m/S 774 mmHg 49%
    05:00 +1°C° 0.2 mm 8 m/S 775 mmHg 51%
    06:00 0°C° 0.2 mm 8 m/S 776 mmHg 53%
    07:00 0°C° 0.2 mm 8 m/S 776 mmHg 54%
    08:00 -1°C° 1.5 mm 8 m/S 777 mmHg 67%
    09:00 -2°C° 1.5 mm 7 m/S 777 mmHg 80%
    10:00 -2°C° 1.5 mm 7 m/S 778 mmHg 93%
    11:00 -2°C° 1.4 mm 7 m/S 777 mmHg 93%
    12:00 -2°C° 1.4 mm 7 m/S 777 mmHg 94%
    13:00 -1°C° 1.4 mm 8 m/S 776 mmHg 95%
    14:00 -1°C° 2.5 mm 8 m/S 776 mmHg 95%
    15:00 -1°C° 2.5 mm 8 m/S 776 mmHg 95%
    16:00 -1°C° 2.5 mm 8 m/S 776 mmHg 95%
    17:00 0°C° 1.3 mm 8 m/S 776 mmHg 94%
    18:00 +1°C° 1.3 mm 9 m/S 776 mmHg 93%
    19:00 +1°C° 1.3 mm 9 m/S 775 mmHg 93%
    20:00 +2°C° 0.1 mm 9 m/S 775 mmHg 91%
    21:00 +2°C° 0.1 mm 8 m/S 775 mmHg 90%
    22:00 +4°C° 0.1 mm 8 m/S 774 mmHg 89%
    23:00 +4°C° 0.3 mm 8 m/S 774 mmHg 90%

    13 Dezember, Freitag

    Zeit Temperatur Niederschläge Wind Luftdruck Luftfeuchtigkeit
    00:00 +5°C° 0.3 mm 7 m/S 773 mmHg 91%
    01:00 +5°C° 0.3 mm 7 m/S 773 mmHg 92%
    02:00 +6°C° 0.6 mm 7 m/S 772 mmHg 92%
    03:00 +6°C° 0.6 mm 7 m/S 771 mmHg 92%
    04:00 +6°C° 0.6 mm 7 m/S 771 mmHg 92%
    05:00 +8°C° 0.3 mm 7 m/S 770 mmHg 92%
    06:00 +8°C° 0.3 mm 7 m/S 770 mmHg 92%
    07:00 +9°C° 0.3 mm 8 m/S 770 mmHg 92%
    08:00 +9°C° 1.1 mm 7 m/S 769 mmHg 93%
    09:00 +9°C° 1.1 mm 7 m/S 769 mmHg 94%
    10:00 +9°C° 1.1 mm 7 m/S 769 mmHg 94%
    11:00 +9°C° 1.7 mm 7 m/S 768 mmHg 94%
    12:00 +9°C° 1.7 mm 7 m/S 767 mmHg 94%
    13:00 +9°C° 1.7 mm 8 m/S 766 mmHg 94%
    14:00 +9°C° 0.5 mm 8 m/S 765 mmHg 93%
    15:00 +9°C° 0.5 mm 8 m/S 764 mmHg 92%
    16:00 +10°C° 0.5 mm 8 m/S 764 mmHg 91%
    17:00 +9°C° 0 mm 7 m/S 764 mmHg 91%
    18:00 +9°C° 0 mm 6 m/S 764 mmHg 92%
    19:00 +9°C° 0 mm 6 m/S 763 mmHg 92%
    20:00 +9°C° 0.1 mm 6 m/S 763 mmHg 92%
    21:00 +9°C° 0.1 mm 5 m/S 763 mmHg 92%
    22:00 +9°C° 0.1 mm 5 m/S 763 mmHg 93%
    23:00 +9°C° 0.1 mm 5 m/S 762 mmHg 93%
    Mehr zeigen